Погода в Чорткове

Погода в Чорткове : погода сейчас, прогноз погоды и архив. Всё, что Вы хотите узнать о погоде в Чорткове!

Хотите узнать прогноз погоды в Чорткове? Тогда Вам сюда: Погода в Чорткове

Поиск расширенной информации на нашем сайте:

Другие новости

Новости СМИ2

Главная страница сайта

Новости сайта

02.10.2013

Напоминаем, что на нашем новом сайте вы можете получить высокодетализированные прогнозы погоды по пунктам России, СНГ и мира (включающие важные для авиации метеовеличины, такие как направление и скорость ветра, видимость, явления погоды, количество и форма облачности, нижняя и верхняя граница облачности), а также ознакомиться с разнообразными материалами по авиационной метеорологии и подборкой полезных ссылок на эту тему.

Сайт Метеоцентр.Азия посвящён разработке технологий оптимизации авиаметеорологического обслуживания, включая проектирование и перспективное создание нескольких автоматизированных авиаметеорологических систем:
- система выпуска высокодетальных прогностических карт явлений погоды для нижнего воздушного пространства по России и ближнему зарубежью;
- система верификации прогнозов TAF (выпускаемых синоптиками официальных АМСГ РФ и ближнего зарубежья) и AUTOTAF (выпускаемых сайтом Метеоцентр.Азия) - выявление ошибок, онлайн-сопоставление с фактической погодой METAR, автоматическое внесение коррективов в прогнозы при резком отклонении фактической погоды от прогноза, подсчёт оправдываемости прогнозов по элементам и в целом;
- система обработки, анализа и отображения авиаметеорологической информации для применения провайдерами метеорологической информации.


Погода в Чорткове - сегодня

Время (UTC), дата Ветер
(°,м/с) 
Видим.   Явления Облачность Т
(°С)
Тd
(°С)
f(%) Тe
(°С)
Pmin
(гПа)
dP
(гПа)
Po
(мм)
O2
(г/м3)
Тmin Tmax R s Состояние
почвы
15 08.02.17 080 (В) 10 км    10/10 600 м 
[Sc]
-8.4 -12.1 75 -11  1032.2  1.5  743  309           
09 09.02.17 100 (В) 20000 м    9/4 600 м средняя 
[Sc|Ac trans]
-6.7 -13.3 59 -9  1038.3  0.9  748  309           
15 09.02.17 080 (В) 10 км    6/0 средняя, верхняя 
[Ac trans|Ci fib]
-5.4 -16 43 -5  1037.7  747  308           
21 09.02.17 110 (В) 10 км    3/0 верхняя 
[Ci fib]
-10.2 -19.9 45 -12  1039.9  0.5  748  314           
03 10.02.17 080 (В) 10 км    ясно 
-14.6 -21.7 55 -15  1040.1  -0.6  748  319           
09 10.02.17 070 (В) 20000 м    ясно 
-9.1 -19.4 43 -9  1039.5  0.1  748  312           
15 10.02.17 090 (В) 20000 м    ясно 
-7.3 -14.9 55 -7  1037.4  -0.6  747  310           
21 10.02.17 080 (В) 10 км    ясно 
-12.3 -17.5 65 -12  1038.3  747  316           
03 11.02.17 080 (В) 10 км    4/0 средняя, верхняя 
[Ac trans|Ci fib]
-15.5 -20.6 65 -18  1038.3  -0.5  747  320           
15 11.02.17 090 (В) 10 км    10/0 средняя 
[As op]
-7.8 -9.6 87 -11  1038.7  748  310           
21 11.02.17 120 (ЮВ) 10 км    10/6 600 м средняя 
[Sc|As op]
-7.3 -9 88 -10  1039.4  0.5  748  310           
15 12.02.17 100 (В) 10 км    10/0 средняя 
[As op]
-6.7 -9.1 83 -9  1040.7  -0.1  749  310           
21 12.02.17 090 (В) 10 км    10/10 600 м 
[Sc]
-8.8 -10.3 89 -9  1040.9  -0.4  749  312           
03 14.02.17 280 (З) 10 км    9/0 средняя 
[Ac trans]
-8 -10.2 84 -10  1034.8  -1.7  745  309           
09 14.02.17 280 (З) 10 км    10/10 600 м 
[Sc]
-4.9 -9.4 71 -7  1032.1  -1.4  743  305           
15 14.02.17 280 (З) 10 км  позёмок  ясно 
-1.1 -9.4 53 -4  1028.6  -1.4  741  300           
15 15.02.17 340 (С) 10 км    10/0 средняя 
[As op]
-2 -3.8 87 -3  1036.9  0.8  747  303           
21 15.02.17 тихо ()   0500 м  переохл. туман  ?/?  
-4.1 -4.1 100 -4  1038.6  0.7  748  306           
03 16.02.17 130 (ЮВ) 0500 м  переохл. туман  ?/?  
-5.7 -5.7 100 -5  1037.6  -1.3  747  307           
09 16.02.17 130 (ЮВ) 0200 м  переохл. туман  ?/?  
-6.1 -6.1 100 -6  1035.6  -0.8  746  307           
15 16.02.17 110 (В) 10 км    6/0 средняя 
[Ac trans]
-3.1 -4.8 88 -3  1031.6  -1.8  743  303           
21 16.02.17 130 (ЮВ) 0200 м  переохл. туман  ?/?  
-5.3 -5.3 100 -5  1030  -0.9  742  305           
03 17.02.17 тихо ()   0200 м  переохл. туман  ?/?  
-7.3 -7.3 100 -7  1027.3  -1.7  740  306           
15 18.02.17 260 (З) 10 км    10/10 600 м 
[Sc]
+2.8 -0.2 81 +4  1023.2  0.8  738  294           
09 19.02.17 170 (Ю) 10 км    10/10 300 м 
[St]
+2.3 +0.1 85 +3  1027.3  0.3  741  295           
Время (UTC), дата Ветер
(°,м/с) 
Видим.   Явления Облачность Т
(°С)
Тd
(°С)
f(%) Тe
(°С)
Pmin
(гПа)
dP
(гПа)
Po
(мм)
O2
(г/м3)
Тmin Tmax R s Состояние
почвы

Для получения пояснительной информации подведите курсор к названию столбца.

ПОГОДА в Чорткове - архив

Всё, что Вы хотите узнать о погоде в Чорткове - удобно и подробно!

Выберите нужную дату (начиная с 1 января 2015* года) и нажмите кнопку "Найти".
Будут отображены архивные сводки погоды по пункту Чортков, начиная с указанной даты.


Отображать данные в формате CSV (для использования в таблицах Excel)


Внимание! Наш архив погоды предназначен исключительно для личного некоммерческого использования в познавательных целях. Если Вам необходимы официальные справки о состоянии погоды (для производственных, юридических, коммерческих и т.п. целей), обращайтесь в органы Росгидромета.

*Примечание: данная дата относится к архиву по метеостанциям СССР (Россия, СНГ, Балтия).
Архив по метеостанциям Зарубежной Европы и Азии (кроме Китая) хранится 10 дней, по другим регионам земного шара (Китай, Африка, Америка, Австралия, Океания) - 1 день.

Чортков - район местоположения метеостанции


Название, широта, долгота, высота метеостанции:
Чортков 49°ш. 25.8°д. 318 м над ур. моря [Украина]

Дополнительная информация

В oтличие oт бoльшинства пoгoдных сайтoв мы публикуем пoдрoбную метеoинфoрмацию в детальнoм прoфессиoнальнoм фoрмате.

Характеристики температуры и влажнoсти вoздуха измеряются на высoте 2 м в тени вдали oт зданий и деревьев.
Скoрoсть ветра измеряется на высoте 10 м (на урoвне рoста челoвека скoрoсть ветра ниже в 1.5-2 раза). Если метеoстанция нахoдится в гoрoде или в лесу, тo скoрoсть ветра занижена на 2-4 м/с пo сравнению с oткрытым местoм. Скoрoсть ветра над акватoриями крупных рек и oзёр, а также на вершинах хoлмoв на 2-5 м/с выше, чем в oбычных услoвиях.
Атмoсфернoе давление в разных тoчках местнoсти мoжет значительнo oтличаться oт давления на метеoстанции, в зависимoсти oт услoвий рельефа (при пoдъёме на 10 м давление пoнижается примернo на 1 мм рт.ст.).